Regional Weather Roundup
Issued by NWS

Home | Current Version | Previous Version | Graphics & Text | Print | Product List | Glossary On
Versions: 1 2 3 4 5 6 7 8 9 10 11 12 13 14 15 16 17 18 19 20 21 22 23 24 25 26 27
000
ASUS45 KCYS 190410
RWRWY

WYOMING REGIONAL WEATHER ROUNDUP
NATIONAL WEATHER SERVICE CHEYENNE WY
1000 PM MDT MON SEP 18 2017

NOTE:  "FAIR" INDICATES FEW OR NO CLOUDS BELOW 12,000 FEET
WITH NO SIGNIFICANT WEATHER AND/OR OBSTRUCTIONS TO VISIBILITY.

WYZ001-190500-
YELLOWSTONE NATIONAL PARK

CITY           SKY/WX    TMP DP  RH WIND       PRES   REMARKS
LK YELLOWSTONE   N/A     36  36 100 CALM      29.90F
W YELLOWSTONE  NOT AVBL

$$
WYZ002>013-054>058-071-098>099-190500-
NORTHERN WYOMING

CITY           SKY/WX    TMP DP  RH WIND       PRES   REMARKS
JACKSON        CLOUDY    44  42  93 S5        29.88
CODY           MOCLDY    59  38  45 W18G30    29.74R
GREYBULL       MOCLDY    63  43  48 NW10      29.61F
WORLAND        FAIR      59  41  51 S9        29.62F
SHERIDAN       FAIR      61  38  42 NE5       29.60F
BUFFALO        FAIR      63  32  31 S9        29.67F
GILLETTE       FAIR      60  39  45 S12       29.66F
HULETT         FAIR      68  36  30 S8        29.69S
NEWCASTLE      FAIR      70  32  24 SE16G25   29.74S

$$
WYZ014>020-022>026-101>103-190500-
CENTRAL WYOMING

CITY           SKY/WX    TMP DP  RH WIND       PRES   REMARKS
BIG PINEY      CLOUDY    52  41  66 W17       29.87R
PINEDALE       CLOUDY    46  41  81 N16G23    29.87F
DUBOIS         RAIN      43  39  87 NW9       29.86S
LANDER           N/A    N/A N/A N/A MISG      29.70
RIVERTON       MOCLDY    61  36  39 W8        29.72F
CASPER         FAIR      60  32  34 SW6       29.75F
DOUGLAS        FAIR      64  29  26 S6        29.78F

$$
WYZ021-027>030-104>119-190500-
SOUTHERN WYOMING

CITY           SKY/WX    TMP DP  RH WIND       PRES   REMARKS
EVANSTON       LGT RAIN  61  34  36 W36G47    29.86R
KEMMERER         N/A     50  43  76 W17G28    29.89S
FORT BRIDGER   MOCLDY    61  30  30 SW14      29.86F
ROCK SPRINGS   FAIR      60  29  30 S18G28    29.85S
DIXON          FAIR      63  32  30 S15G21    29.93F
RAWLINS        FAIR      58  30  34 S14       29.88F
SARATOGA       FAIR      54  28  37 S10       29.92F
LARAMIE        FAIR      52  29  41 SE10      29.96F
CHEYENNE       FAIR      59  29  31 S8        29.93F
TORRINGTON     NOT AVBL
PINE BLUFFS    FAIR      63  32  31 SE9       29.88F

$$




USA.gov is the U.S. government's official web portal to all federal, state and local government web resources and services.